Total_Precipitation_Accumulation
0.60 0.53 0.48 0.41 0.38 0.36 0.37 0.48 0.81 1.23 1.63 2.05 2.19 2.32 2.57 2.71 2.60 2.31 1.95 1.72 1.62 1.52 1.42 1.35 1.26 1.18 1.07 1.00 0.91 0.86 0.83 0.79 0.75 0.70 0.66 0.64 0.66 0.67 0.66 0.61 0.52 0.49 0.47 0.46
0.54 0.44 0.50 0.50 0.51 0.53 0.51 0.58 0.86 1.26 1.88 2.19 2.36 2.47 2.48 2.45 2.47 2.40 2.04 1.82 1.73 1.64 1.54 1.50 1.38 1.32 1.23 1.12 1.06 0.97 0.89 0.88 0.81 0.75 0.67 0.65 0.63 0.63 0.61 0.55 0.50 0.47 0.45 0.42
0.78 0.47 0.67 1.01 0.83 0.69 0.73 0.77 0.98 1.34 1.71 1.87 2.01 2.13 2.32 2.44 2.36 2.35 2.13 1.91 1.79 1.78 1.76 1.69 1.63 1.53 1.37 1.22 1.14 0.96 0.84 0.81 0.79 0.74 0.69 0.65 0.57 0.53 0.55 0.57 0.53 0.48 0.45 0.44
0.79 0.91 1.37 1.17 0.73 0.66 0.79 0.86 0.87 1.05 1.18 1.40 1.58 1.77 2.02 2.24 2.34 2.36 2.21 2.08 1.96 1.85 1.81 1.72 1.64 1.51 1.33 1.14 0.98 0.82 0.74 0.70 0.65 0.62 0.63 0.64 0.57 0.54 0.56 0.57 0.55 0.51 0.48 0.49
0.93 1.21 1.38 1.15 0.71 0.63 0.92 1.13 0.87 0.92 0.94 0.96 1.07 1.35 1.81 1.94 1.98 2.08 2.11 2.07 1.97 1.83 1.75 1.63 1.45 1.29 1.17 0.96 0.84 0.76 0.70 0.67 0.59 0.53 0.58 0.61 0.58 0.57 0.61 0.59 0.58 0.56 0.54 0.57
0.99 1.38 1.64 1.41 0.63 0.42 0.75 1.50 1.08 0.96 1.00 0.98 1.15 1.45 1.51 1.44 1.47 1.59 1.73 1.82 1.77 1.59 1.46 1.39 1.21 1.05 0.99 0.87 0.78 0.74 0.68 0.63 0.57 0.55 0.58 0.61 0.64 0.63 0.58 0.57 0.54 0.49 0.53 0.60
1.10 1.39 1.45 0.80 0.46 0.59 1.34 1.67 1.18 0.97 1.04 1.20 1.40 1.37 1.05 0.92 1.10 1.26 1.37 1.51 1.50 1.40 1.32 1.18 1.00 0.97 1.01 0.96 0.82 0.66 0.57 0.56 0.59 0.60 0.56 0.54 0.57 0.59 0.57 0.50 0.52 0.51 0.51 0.55
1.16 1.48 1.48 0.65 0.57 0.97 1.15 0.91 0.81 0.81 0.85 0.88 0.90 0.81 0.73 0.73 0.87 0.98 1.10 1.19 1.26 1.29 1.21 1.09 0.98 0.96 0.96 0.92 0.74 0.63 0.62 0.62 0.59 0.55 0.45 0.43 0.53 0.56 0.52 0.50 0.53 0.55 0.57 0.59
1.08 1.30 0.98 0.55 0.53 0.57 0.58 0.67 0.67 0.71 0.72 0.63 0.63 0.65 0.63 0.68 0.80 0.91 0.95 0.99 1.03 1.07 1.03 1.00 0.94 0.93 0.92 0.80 0.64 0.60 0.65 0.61 0.55 0.48 0.42 0.42 0.48 0.50 0.48 0.47 0.45 0.44 0.46 0.51
0.71 0.72 0.57 0.51 0.47 0.50 0.56 0.56 0.57 0.62 0.62 0.57 0.53 0.53 0.55 0.64 0.76 0.83 0.82 0.82 0.87 0.95 0.94 0.90 0.83 0.80 0.81 0.70 0.65 0.67 0.67 0.58 0.50 0.44 0.38 0.36 0.38 0.36 0.37 0.37 0.38 0.37 0.37 0.39
0.73 0.73 0.65 0.61 0.54 0.53 0.56 0.56 0.54 0.56 0.59 0.53 0.45 0.46 0.50 0.60 0.63 0.68 0.73 0.73 0.77 0.87 0.87 0.77 0.69 0.65 0.61 0.63 0.68 0.70 0.65 0.53 0.45 0.38 0.32 0.31 0.27 0.22 0.21 0.23 0.23 0.26 0.24 0.22
0.77 0.71 0.74 0.69 0.51 0.48 0.56 0.65 0.65 0.61 0.54 0.46 0.42 0.41 0.41 0.50 0.53 0.55 0.61 0.66 0.72 0.71 0.68 0.61 0.56 0.55 0.50 0.53 0.58 0.56 0.50 0.43 0.35 0.29 0.28 0.23 0.22 0.20 0.15 0.13 0.14 0.16 0.17 0.16
0.52 0.49 0.55 0.59 0.55 0.54 0.59 0.60 0.58 0.51 0.43 0.38 0.36 0.37 0.39 0.43 0.46 0.49 0.52 0.53 0.55 0.53 0.52 0.50 0.44 0.43 0.42 0.43 0.46 0.43 0.38 0.33 0.27 0.23 0.22 0.20 0.23 0.30 0.31 0.22 0.15 0.16 0.16 0.16
0.54 0.56 0.72 0.73 0.61 0.49 0.43 0.40 0.41 0.39 0.39 0.37 0.37 0.37 0.35 0.34 0.34 0.39 0.46 0.43 0.39 0.38 0.40 0.38 0.35 0.37 0.39 0.40 0.41 0.38 0.29 0.23 0.23 0.24 0.20 0.20 0.21 0.23 0.28 0.34 0.34 0.26 0.16 0.14
0.61 0.55 0.66 0.64 0.50 0.40 0.35 0.33 0.35 0.38 0.39 0.40 0.39 0.35 0.30 0.29 0.30 0.32 0.33 0.31 0.31 0.32 0.31 0.30 0.32 0.37 0.37 0.36 0.37 0.33 0.27 0.25 0.24 0.24 0.21 0.19 0.18 0.17 0.19 0.24 0.30 0.30 0.24 0.16
0.55 0.46 0.45 0.44 0.40 0.37 0.34 0.33 0.33 0.34 0.33 0.33 0.32 0.29 0.24 0.22 0.23 0.27 0.27 0.25 0.27 0.29 0.27 0.25 0.28 0.30 0.30 0.34 0.35 0.31 0.26 0.23 0.22 0.22 0.20 0.18 0.15 0.15 0.17 0.22 0.26 0.26 0.23 0.18
0.51 0.46 0.41 0.37 0.36 0.34 0.31 0.32 0.31 0.27 0.27 0.26 0.26 0.25 0.20 0.20 0.22 0.26 0.27 0.25 0.26 0.29 0.29 0.28 0.26 0.22 0.23 0.28 0.30 0.28 0.24 0.22 0.20 0.19 0.17 0.15 0.14 0.13 0.16 0.21 0.21 0.22 0.19 0.18
0.45 0.39 0.33 0.31 0.28 0.27 0.26 0.26 0.26 0.24 0.27 0.20 0.19 0.20 0.19 0.21 0.24 0.24 0.23 0.21 0.22 0.26 0.27 0.23 0.18 0.16 0.16 0.20 0.25 0.26 0.22 0.19 0.16 0.16 0.14 0.13 0.15 0.16 0.16 0.17 0.17 0.18 0.16 0.16
0.39 0.30 0.22 0.20 0.20 0.21 0.22 0.22 0.23 0.22 0.20 0.17 0.16 0.17 0.18 0.19 0.22 0.20 0.18 0.19 0.21 0.23 0.22 0.18 0.17 0.17 0.19 0.21 0.22 0.20 0.18 0.15 0.13 0.13 0.14 0.15 0.17 0.18 0.18 0.18 0.19 0.18 0.15 0.15
0.31 0.24 0.18 0.16 0.17 0.17 0.18 0.18 0.23 0.25 0.20 0.15 0.14 0.14 0.15 0.17 0.17 0.16 0.18 0.20 0.19 0.18 0.18 0.17 0.17 0.18 0.20 0.20 0.18 0.15 0.14 0.11 0.12 0.12 0.15 0.19 0.19 0.16 0.16 0.17 0.17 0.16 0.14 0.14
0.21 0.16 0.15 0.14 0.16 0.16 0.15 0.16 0.18 0.19 0.18 0.14 0.14 0.14 0.13 0.14 0.13 0.15 0.21 0.24 0.21 0.17 0.16 0.17 0.17 0.18 0.18 0.18 0.15 0.12 0.11 0.12 0.11 0.11 0.13 0.17 0.17 0.15 0.15 0.15 0.14 0.13 0.12 0.14
0.16 0.13 0.13 0.12 0.15 0.16 0.13 0.14 0.15 0.15 0.15 0.13 0.12 0.12 0.14 0.16 0.15 0.15 0.19 0.26 0.24 0.20 0.16 0.14 0.15 0.16 0.14 0.13 0.11 0.09 0.10 0.12 0.12 0.13 0.15 0.17 0.18 0.16 0.15 0.14 0.14 0.13 0.12 0.12
0.18 0.14 0.13 0.14 0.14 0.13 0.12 0.14 0.15 0.14 0.14 0.13 0.11 0.11 0.14 0.16 0.17 0.16 0.20 0.24 0.22 0.19 0.16 0.13 0.12 0.11 0.10 0.09 0.08 0.06 0.07 0.10 0.11 0.15 0.17 0.16 0.16 0.16 0.15 0.14 0.15 0.14 0.14 0.13
0.19 0.17 0.15 0.14 0.12 0.13 0.15 0.16 0.16 0.15 0.14 0.12 0.10 0.11 0.15 0.16 0.17 0.14 0.18 0.21 0.21 0.20 0.17 0.13 0.09 0.07 0.07 0.06 0.06 0.07 0.09 0.11 0.11 0.12 0.15 0.15 0.15 0.14 0.14 0.15 0.16 0.15 0.15 0.13
0.19 0.18 0.18 0.18 0.18 0.18 0.18 0.16 0.16 0.15 0.15 0.15 0.12 0.12 0.14 0.17 0.16 0.16 0.16 0.14 0.13 0.12 0.10 0.09 0.06 0.05 0.05 0.04 0.05 0.06 0.09 0.13 0.12 0.11 0.13 0.15 0.14 0.13 0.14 0.17 0.18 0.17 0.16 0.14
0.28 0.26 0.24 0.23 0.19 0.19 0.16 0.16 0.16 0.17 0.17 0.17 0.16 0.15 0.17 0.19 0.18 0.18 0.17 0.15 0.12 0.09 0.07 0.05 0.06 0.06 0.04 0.04 0.05 0.06 0.10 0.12 0.09 0.10 0.13 0.15 0.14 0.14 0.15 0.18 0.20 0.19 0.16 0.13
0.41 0.40 0.37 0.29 0.21 0.18 0.18 0.18 0.17 0.17 0.18 0.16 0.16 0.15 0.17 0.18 0.18 0.19 0.17 0.14 0.12 0.09 0.07 0.06 0.06 0.05 0.04 0.04 0.05 0.08 0.11 0.11 0.11 0.14 0.13 0.14 0.15 0.16 0.18 0.19 0.22 0.21 0.19 0.15